• In Portugal
  • List of Countries
  • For 7 days
  • Water Temperature
  • Satellite Maps
  • Weather Map
  • Weather Widgets
  • user-avatar
    Login

    Hourly Weather Apole

    Today, 21 September, Friday

    Time Temperature Precipitation Wind Pressure Humidity
    00:00 +16°C° 0 mm 2 mps 747 mmHg 85%
    01:00 +15°C° 0 mm 2 mps 747 mmHg 87%
    02:00 +15°C° 0 mm 2 mps 747 mmHg 88%
    03:00 +15°C° 0 mm 2 mps 747 mmHg 89%
    04:00 +15°C° 0 mm 2 mps 747 mmHg 90%
    05:00 +15°C° 0 mm 2 mps 747 mmHg 92%
    06:00 +16°C° 0 mm 2 mps 747 mmHg 87%
    07:00 +17°C° 0 mm 3 mps 747 mmHg 83%
    08:00 +18°C° 0 mm 3 mps 747 mmHg 79%
    09:00 +20°C° 0 mm 3 mps 747 mmHg 74%
    10:00 +22°C° 0 mm 3 mps 747 mmHg 69%
    11:00 +24°C° 0 mm 3 mps 747 mmHg 63%
    12:00 +25°C° 0 mm 3 mps 747 mmHg 60%
    13:00 +26°C° 0 mm 4 mps 747 mmHg 57%
    14:00 +27°C° 0 mm 4 mps 747 mmHg 54%
    15:00 +26°C° 0 mm 3 mps 746 mmHg 59%
    16:00 +25°C° 0 mm 3 mps 746 mmHg 65%
    17:00 +24°C° 0 mm 2 mps 746 mmHg 70%
    18:00 +23°C° 0 mm 2 mps 745 mmHg 74%
    19:00 +20°C° 0 mm 3 mps 745 mmHg 77%
    20:00 +19°C° 0 mm 3 mps 745 mmHg 81%
    21:00 +19°C° 0 mm 3 mps 745 mmHg 79%
    22:00 +18°C° 0 mm 3 mps 744 mmHg 77%
    23:00 +18°C° 0 mm 3 mps 744 mmHg 76%

    Tomorrow, 22 September, Saturday

    Time Temperature Precipitation Wind Pressure Humidity
    00:00 +18°C° 0 mm 4 mps 744 mmHg 75%
    01:00 +18°C° 0 mm 4 mps 743 mmHg 74%
    02:00 +18°C° 0 mm 4 mps 743 mmHg 73%
    03:00 +18°C° 0 mm 4 mps 742 mmHg 72%
    04:00 +16°C° 0 mm 5 mps 742 mmHg 72%
    05:00 +16°C° 0 mm 5 mps 741 mmHg 71%
    06:00 +17°C° 0 mm 5 mps 741 mmHg 70%
    07:00 +17°C° 0 mm 5 mps 741 mmHg 68%
    08:00 +17°C° 0 mm 6 mps 740 mmHg 67%
    09:00 +17°C° 0.1 mm 5 mps 741 mmHg 69%
    10:00 +17°C° 0.1 mm 5 mps 741 mmHg 71%
    11:00 +17°C° 0.1 mm 5 mps 741 mmHg 74%
    12:00 +15°C° 0.2 mm 4 mps 741 mmHg 77%
    13:00 +14°C° 0.2 mm 4 mps 742 mmHg 80%
    14:00 +12°C° 0.2 mm 3 mps 742 mmHg 83%
    15:00 +12°C° 0.4 mm 3 mps 742 mmHg 85%
    16:00 +11°C° 0.4 mm 3 mps 742 mmHg 88%
    17:00 +11°C° 0.4 mm 3 mps 742 mmHg 90%
    18:00 +10°C° 0.4 mm 3 mps 743 mmHg 91%
    19:00 +10°C° 0.4 mm 3 mps 743 mmHg 92%
    20:00 +10°C° 0.4 mm 3 mps 743 mmHg 92%
    21:00 +10°C° 0.1 mm 3 mps 743 mmHg 92%
    22:00 +10°C° 0.1 mm 3 mps 743 mmHg 92%
    23:00 +10°C° 0.1 mm 3 mps 743 mmHg 92%

    Day after tomorrow, 23 September, Sunday

    Time Temperature Precipitation Wind Pressure Humidity
    00:00 +9°C° 0 mm 3 mps 742 mmHg 93%
    01:00 +9°C° 0 mm 2 mps 742 mmHg 94%
    02:00 +9°C° 0 mm 2 mps 742 mmHg 94%
    03:00 +8°C° 0 mm 2 mps 742 mmHg 95%
    04:00 +8°C° 0 mm 2 mps 742 mmHg 96%
    05:00 +7°C° 0 mm 2 mps 742 mmHg 96%
    06:00 +8°C° 0 mm 2 mps 741 mmHg 94%
    07:00 +8°C° 0 mm 3 mps 741 mmHg 92%
    08:00 +9°C° 0 mm 3 mps 741 mmHg 90%
    09:00 +10°C° 0 mm 3 mps 741 mmHg 82%
    10:00 +12°C° 0 mm 4 mps 741 mmHg 74%
    11:00 +13°C° 0 mm 4 mps 741 mmHg 66%
    12:00 +13°C° 0.2 mm 4 mps 740 mmHg 66%
    13:00 +13°C° 0.2 mm 4 mps 740 mmHg 65%
    14:00 +14°C° 0.2 mm 4 mps 740 mmHg 64%
    15:00 +13°C° 0.3 mm 4 mps 740 mmHg 70%
    16:00 +12°C° 0.3 mm 4 mps 740 mmHg 75%
    17:00 +11°C° 0.3 mm 3 mps 740 mmHg 81%
    18:00 +10°C° 0.1 mm 3 mps 740 mmHg 84%
    19:00 +9°C° 0.1 mm 3 mps 740 mmHg 87%
    20:00 +8°C° 0.1 mm 3 mps 740 mmHg 90%
    21:00 +8°C° 0 mm 3 mps 740 mmHg 91%
    22:00 +8°C° 0 mm 3 mps 740 mmHg 91%
    23:00 +8°C° 0 mm 3 mps 740 mmHg 91%

    24 September, Monday

    Time Temperature Precipitation Wind Pressure Humidity
    00:00 +7°C° 0 mm 3 mps 740 mmHg 91%
    01:00 +7°C° 0 mm 3 mps 740 mmHg 91%
    02:00 +5°C° 0 mm 3 mps 740 mmHg 91%
    03:00 +5°C° 0 mm 3 mps 740 mmHg 93%
    04:00 +5°C° 0 mm 3 mps 740 mmHg 94%
    05:00 +5°C° 0 mm 2 mps 740 mmHg 96%
    06:00 +6°C° 0 mm 2 mps 740 mmHg 94%
    07:00 +6°C° 0 mm 2 mps 740 mmHg 92%
    08:00 +7°C° 0 mm 2 mps 740 mmHg 90%
    09:00 +8°C° 0 mm 2 mps 740 mmHg 83%
    10:00 +10°C° 0 mm 2 mps 740 mmHg 77%
    11:00 +12°C° 0 mm 2 mps 739 mmHg 70%
    12:00 +12°C° 0.2 mm 2 mps 739 mmHg 71%
    13:00 +11°C° 0.2 mm 3 mps 738 mmHg 72%
    14:00 +11°C° 0.2 mm 3 mps 738 mmHg 73%
    15:00 +10°C° 1.1 mm 4 mps 737 mmHg 79%
    16:00 +8°C° 1.1 mm 4 mps 736 mmHg 85%
    17:00 +7°C° 1.1 mm 4 mps 735 mmHg 90%
    18:00 +7°C° 2 mm 5 mps 735 mmHg 91%
    19:00 +7°C° 2 mm 5 mps 734 mmHg 92%
    20:00 +6°C° 2 mm 5 mps 734 mmHg 93%
    21:00 +5°C° 1.9 mm 6 mps 733 mmHg 93%
    22:00 +5°C° 1.9 mm 6 mps 732 mmHg 93%
    23:00 +5°C° 1.9 mm 6 mps 732 mmHg 93%

    25 September, Tuesday

    Time Temperature Precipitation Wind Pressure Humidity
    00:00 +5°C° 1.8 mm 6 mps 731 mmHg 93%
    01:00 +5°C° 1.8 mm 7 mps 731 mmHg 93%
    02:00 +5°C° 1.8 mm 7 mps 731 mmHg 93%
    03:00 +5°C° 1.5 mm 7 mps 731 mmHg 92%
    04:00 +5°C° 1.5 mm 8 mps 731 mmHg 91%
    05:00 +5°C° 1.5 mm 8 mps 731 mmHg 91%
    06:00 +5°C° 1.4 mm 9 mps 732 mmHg 90%
    07:00 +5°C° 1.4 mm 9 mps 732 mmHg 89%
    08:00 +3°C° 1.4 mm 9 mps 732 mmHg 88%
    09:00 +3°C° 0.9 mm 9 mps 733 mmHg 88%
    10:00 +3°C° 0.9 mm 9 mps 734 mmHg 87%
    11:00 +3°C° 0.9 mm 9 mps 734 mmHg 86%
    12:00 +5°C° 0.6 mm 8 mps 735 mmHg 83%
    13:00 +5°C° 0.6 mm 8 mps 735 mmHg 81%
    14:00 +5°C° 0.6 mm 8 mps 736 mmHg 79%
    15:00 +5°C° 0.2 mm 7 mps 736 mmHg 76%
    16:00 +5°C° 0.2 mm 7 mps 737 mmHg 73%
    17:00 +5°C° 0.2 mm 6 mps 737 mmHg 70%
    18:00 +4°C° 0.1 mm 6 mps 738 mmHg 69%
    19:00 +4°C° 0.1 mm 6 mps 738 mmHg 68%
    20:00 +3°C° 0.1 mm 6 mps 739 mmHg 68%
    21:00 +3°C° 0 mm 6 mps 739 mmHg 67%
    22:00 +2°C° 0 mm 5 mps 739 mmHg 67%
    23:00 +2°C° 0 mm 5 mps 740 mmHg 66%

    26 September, Wednesday

    Time Temperature Precipitation Wind Pressure Humidity
    00:00 +2°C° 0 mm 5 mps 740 mmHg 67%
    01:00 +2°C° 0 mm 5 mps 740 mmHg 67%
    02:00 +1°C° 0 mm 5 mps 741 mmHg 67%
    03:00 +1°C° 0 mm 5 mps 741 mmHg 68%
    04:00 +1°C° 0 mm 5 mps 741 mmHg 68%
    05:00 +1°C° 0 mm 5 mps 742 mmHg 69%
    06:00 +2°C° 0 mm 5 mps 742 mmHg 67%
    07:00 +2°C° 0 mm 6 mps 743 mmHg 64%
    08:00 +3°C° 0 mm 6 mps 743 mmHg 62%
    09:00 +4°C° 0 mm 6 mps 744 mmHg 59%
    10:00 +5°C° 0 mm 6 mps 744 mmHg 55%
    11:00 +7°C° 0 mm 6 mps 745 mmHg 52%
    12:00 +7°C° 0.1 mm 6 mps 745 mmHg 54%
    13:00 +7°C° 0.1 mm 6 mps 746 mmHg 56%
    14:00 +7°C° 0.1 mm 5 mps 747 mmHg 58%
    15:00 +6°C° 0 mm 4 mps 747 mmHg 60%
    16:00 +6°C° 0 mm 4 mps 748 mmHg 63%
    17:00 +7°C° 0 mm 3 mps 748 mmHg 66%
    18:00 +5°C° 0 mm 3 mps 749 mmHg 69%
    19:00 +4°C° 0 mm 3 mps 749 mmHg 72%
    20:00 +2°C° 0 mm 3 mps 750 mmHg 75%
    21:00 +3°C° 0 mm 2 mps 750 mmHg 77%
    22:00 +2°C° 0 mm 2 mps 750 mmHg 79%
    23:00 +2°C° 0 mm 2 mps 751 mmHg 81%
    Show more